SENTINEL-2A (40697 NORAD) Tracking and Keplerian Element Data

This shows tracking and keplerian element data for the satellite.

Feedback or suggestion? Click here.




ElementValue
Catalog40697
NameSENTINEL-2A
Epoch Orbit18127
Epoch Day345.69692649
Epoch Year2018
RAAN57.8403
Inclination98.5648
Eccentricity0.0001217
Argument of Perigee92.2018
Mean Anonmoly267.9304
Mean Motion14.30817974
Decay Rate1.3E-07
L11 40697U 15028A 18345.69692649 .00000013 00000-0 21488-4 0 9995
L22 40697 98.5648 57.8403 0001217 92.2018 267.9304 14.30817974181272

Live tracking and technical data element details for SENTINEL-2A (NORAD 40697). SENTINEL-2A can be tracked NOW for your location showing map with azimuth and elevation plus other details from your city location.

Track the satellite on the map from your city or location and see movement details for azimuth, elevation, latitude, longitude, range, height, and movement on the map or in text.







IsCatalogInMostPopularTable: catalog: 40697, numindb: 96
Update: records affected: 1



GetName: 40697 SENTINEL-2A

Hit Count: updated at: Thu, 13 Dec 2018 04:11:34 GMT